User: anonymous   Login
Location: Bonny Doon Airfield
(37.0704°N, 122.1252°W)
Time: 16:17:06
(UTC-08:00)
Language:

BREEZE M DEB (TANK) - Orbit

View from above orbital plane
View from above orbital plane
View from above satellite
View from above satellite

Ground track
Ground track

The orbit data is extracted from the following two-line orbital elements,

1 33437U 08057B   17052.36078646 +.00001872 +00000-0 +43210-3 0  9996
2 33437 049.5934 345.3067 5000381 351.3156 002.5026 05.60079197167356
Epoch (UTC): 21 February 2017 08:39:31
Eccentricity: 0.5000381
inclination: 49.5934°
perigee height: 318 km
apogee height: 13713 km
right ascension of ascending node: 345.3067°
argument of perigee: 351.3156°
revolutions per day: 5.60079197
mean anomaly at epoch: 2.5026°
orbit number at epoch: 16735

The dashed part of the orbit path shows where the satellite is in the earth's shadow,  

DLR